TimePST,TemperatureF,Dew PointF,Humidity,Sea Level PressureIn,VisibilityMPH,Wind Direction,Wind SpeedMPH,Gust SpeedMPH,PrecipitationIn,Events,Conditions,WindDirDegrees,DateUTC
12:10 AM,24.8,23.0,93,30.31,10.0,West,3.5,-,N/A,,Overcast,280,2013-01-01 08:10:00
12:30 AM,24.8,23.0,93,30.30,10.0,West,4.6,-,N/A,,Overcast,270,2013-01-01 08:30:00
12:50 AM,24.8,23.0,93,30.30,10.0,West,4.6,-,N/A,,Overcast,270,2013-01-01 08:50:00
1:10 AM,24.8,23.0,93,30.31,10.0,West,5.8,-,N/A,,Overcast,270,2013-01-01 09:10:00
1:30 AM,24.8,23.0,93,30.31,10.0,West,4.6,-,N/A,,Overcast,270,2013-01-01 09:30:00
1:50 AM,24.8,23.0,93,30.32,10.0,West,3.5,-,N/A,,Overcast,270,2013-01-01 09:50:00
2:10 AM,24.8,24.8,100,30.32,3.0,West,4.6,-,N/A,,Overcast,280,2013-01-01 10:10:00
2:30 AM,24.8,23.0,93,30.33,10.0,West,4.6,-,N/A,,Overcast,270,2013-01-01 10:30:00
2:50 AM,24.8,23.0,93,30.33,10.0,West,3.5,-,N/A,,Overcast,280,2013-01-01 10:50:00
3:10 AM,24.8,23.0,93,30.33,8.0,West,3.5,-,N/A,,Overcast,260,2013-01-01 11:10:00
3:30 AM,24.8,23.0,93,30.33,10.0,West,4.6,-,N/A,,Overcast,270,2013-01-01 11:30:00
3:50 AM,24.8,23.0,93,30.33,10.0,West,4.6,-,N/A,,Overcast,270,2013-01-01 11:50:00
4:10 AM,24.8,23.0,93,30.35,7.0,West,5.8,-,N/A,,Overcast,280,2013-01-01 12:10:00
4:30 AM,24.8,23.0,93,30.35,10.0,West,3.5,-,N/A,,Overcast,270,2013-01-01 12:30:00
4:50 AM,24.8,23.0,93,30.34,4.0,West,5.8,-,N/A,,Overcast,270,2013-01-01 12:50:00
5:10 AM,24.8,23.0,93,30.35,10.0,West,3.5,-,N/A,,Overcast,270,2013-01-01 13:10:00
5:30 AM,24.8,23.0,93,30.35,10.0,West,5.8,-,N/A,,Overcast,270,2013-01-01 13:30:00
5:50 AM,24.8,23.0,93,30.34,10.0,WNW,3.5,-,N/A,,Overcast,290,2013-01-01 13:50:00
6:10 AM,23.0,23.0,100,30.34,10.0,WNW,4.6,-,N/A,,Overcast,290,2013-01-01 14:10:00
6:30 AM,23.0,21.2,93,30.35,10.0,West,4.6,-,N/A,,Overcast,260,2013-01-01 14:30:00
6:50 AM,24.8,23.0,93,30.35,7.0,WNW,4.6,-,N/A,,Overcast,300,2013-01-01 14:50:00
7:10 AM,23.0,21.2,93,30.36,10.0,West,5.8,-,N/A,,Overcast,280,2013-01-01 15:10:00
7:30 AM,23.0,21.2,93,30.35,10.0,West,5.8,-,N/A,,Overcast,280,2013-01-01 15:30:00
7:50 AM,23.0,19.4,86,30.36,10.0,West,3.5,-,N/A,,Overcast,260,2013-01-01 15:50:00
8:30 AM,23.0,21.2,93,30.38,10.0,West,5.8,-,N/A,,Overcast,270,2013-01-01 16:30:00
8:50 AM,23.0,21.2,93,30.38,3.0,WSW,3.5,-,N/A,,Mostly Cloudy,240,2013-01-01 16:50:00
9:10 AM,23.0,23.0,100,30.39,10.0,Calm,Calm,-,N/A,,Scattered Clouds,0,2013-01-01 17:10:00
9:30 AM,24.8,24.8,100,30.41,10.0,Calm,Calm,-,N/A,,Overcast,0,2013-01-01 17:30:00
9:50 AM,26.6,24.8,93,30.42,10.0,Calm,Calm,-,N/A,,Mostly Cloudy,0,2013-01-01 17:50:00
10:10 AM,28.4,26.6,93,30.42,10.0,Calm,Calm,-,N/A,,Partly Cloudy,0,2013-01-01 18:10:00
10:30 AM,30.2,26.6,86,30.42,10.0,Calm,Calm,-,N/A,,Clear,0,2013-01-01 18:30:00
10:50 AM,32.0,26.6,80,30.41,10.0,Calm,Calm,-,N/A,,Clear,0,2013-01-01 18:50:00
11:10 AM,32.0,26.6,80,30.40,10.0,SSE,4.6,-,N/A,,Clear,150,2013-01-01 19:10:00
11:30 AM,32.0,28.4,87,30.39,10.0,Calm,Calm,-,N/A,,Clear,0,2013-01-01 19:30:00
11:50 AM,32.0,28.4,87,30.39,10.0,Calm,Calm,-,N/A,,Clear,0,2013-01-01 19:50:00
12:10 PM,33.8,28.4,81,30.38,10.0,Calm,Calm,-,N/A,,Clear,0,2013-01-01 20:10:00
12:30 PM,35.6,28.4,75,30.37,10.0,Calm,Calm,-,N/A,,Clear,0,2013-01-01 20:30:00
12:50 PM,37.4,26.6,65,30.36,10.0,Calm,Calm,-,N/A,,Clear,0,2013-01-01 20:50:00
1:10 PM,37.4,28.4,70,30.35,10.0,Calm,Calm,-,N/A,,Clear,0,2013-01-01 21:10:00
1:30 PM,37.4,28.4,70,30.34,10.0,Calm,Calm,-,N/A,,Clear,0,2013-01-01 21:30:00
1:50 PM,37.4,28.4,70,30.34,10.0,Calm,Calm,-,N/A,,Clear,0,2013-01-01 21:50:00
2:10 PM,39.2,28.4,65,30.33,10.0,Calm,Calm,-,N/A,,Clear,0,2013-01-01 22:10:00
2:30 PM,39.2,30.2,70,30.33,10.0,SSE,3.5,-,N/A,,Clear,150,2013-01-01 22:30:00
2:50 PM,39.2,32.0,75,30.33,10.0,Calm,Calm,-,N/A,,Clear,0,2013-01-01 22:50:00
3:10 PM,39.2,32.0,75,30.33,10.0,Calm,Calm,-,N/A,,Clear,0,2013-01-01 23:10:00
3:30 PM,37.4,32.0,81,30.33,10.0,Calm,Calm,-,N/A,,Clear,0,2013-01-01 23:30:00
3:50 PM,35.6,32.0,87,30.33,10.0,Calm,Calm,-,N/A,,Clear,0,2013-01-01 23:50:00
4:10 PM,33.8,32.0,93,30.34,10.0,Calm,Calm,-,N/A,,Clear,0,2013-01-02 00:10:00
4:30 PM,32.0,32.0,100,30.34,10.0,Calm,Calm,-,N/A,,Clear,0,2013-01-02 00:30:00
4:50 PM,32.0,28.4,87,30.34,7.0,Calm,Calm,-,N/A,,Clear,0,2013-01-02 00:50:00
5:10 PM,32.0,30.2,93,30.34,9.0,West,3.5,-,N/A,,Clear,280,2013-01-02 01:10:00
5:30 PM,30.2,28.4,93,30.34,10.0,WSW,3.5,-,N/A,,Clear,240,2013-01-02 01:30:00
5:50 PM,30.2,28.4,93,30.34,10.0,WSW,3.5,-,N/A,,Clear,250,2013-01-02 01:50:00
6:10 PM,28.4,28.4,100,30.34,9.0,Calm,Calm,-,N/A,,Clear,0,2013-01-02 02:10:00
6:30 PM,28.4,28.4,100,30.34,10.0,Calm,Calm,-,N/A,,Clear,0,2013-01-02 02:30:00
6:50 PM,28.4,26.6,93,30.34,10.0,Calm,Calm,-,N/A,,Clear,0,2013-01-02 02:50:00
7:10 PM,26.6,26.6,100,30.34,10.0,Calm,Calm,-,N/A,,Clear,0,2013-01-02 03:10:00
7:30 PM,28.4,26.6,93,30.35,10.0,West,4.6,-,N/A,,Clear,260,2013-01-02 03:30:00
7:50 PM,28.4,26.6,93,30.35,10.0,West,4.6,-,N/A,,Clear,260,2013-01-02 03:50:00
8:10 PM,26.6,26.6,100,30.35,10.0,West,3.5,-,N/A,,Clear,260,2013-01-02 04:10:00
8:30 PM,26.6,26.6,100,30.35,9.0,West,4.6,-,N/A,,Clear,280,2013-01-02 04:30:00
8:50 PM,26.6,26.6,100,30.35,10.0,West,3.5,-,N/A,,Clear,260,2013-01-02 04:50:00
9:10 PM,26.6,24.8,93,30.35,10.0,West,4.6,-,N/A,,Clear,270,2013-01-02 05:10:00
9:30 PM,26.6,24.8,93,30.36,10.0,West,5.8,-,N/A,,Clear,270,2013-01-02 05:30:00
9:50 PM,26.6,26.6,100,30.36,10.0,West,4.6,-,N/A,,Clear,260,2013-01-02 05:50:00
10:10 PM,26.6,24.8,93,30.36,10.0,West,3.5,-,N/A,,Clear,260,2013-01-02 06:10:00
10:30 PM,26.6,24.8,93,30.37,10.0,West,4.6,-,N/A,,Clear,280,2013-01-02 06:30:00
10:50 PM,24.8,23.0,93,30.36,10.0,West,4.6,-,N/A,,Clear,270,2013-01-02 06:50:00
11:10 PM,24.8,24.8,100,30.37,10.0,WNW,4.6,-,N/A,,Scattered Clouds,290,2013-01-02 07:10:00
11:30 PM,24.8,23.0,93,30.37,9.0,West,4.6,-,N/A,,Overcast,260,2013-01-02 07:30:00
11:50 PM,24.8,23.0,93,30.37,10.0,West,3.5,-,N/A,,Overcast,270,2013-01-02 07:50:00